[keps] orb08108.amsat

Ray Hoad r.hoad at att.net
Thu Apr 17 18:07:41 PDT 2008


SB KEPS @ AMSAT  $ORB08108.O
Orbital Elements  08108.OSCAR

HR AMSAT ORBITAL ELEMENTS FOR OSCAR SATELLITES
FROM WA5QGD FORT WORTH,TX April 17, 2008
Send Subscribe/unsubscribe to KEPS at 
http://www.amsat.org/mailman/listinfo/keps
BID: ORB08108.O
TO ALL RADIO AMATEURS BT

Satellite: AO-07
Catalog number: 07530
Epoch time:      08108.72050569
Element set:     154
Inclination:      101.4715 deg
RA of node:       142.2280 deg
Eccentricity:    0.0011837
Arg of perigee:   021.9484 deg
Mean anomaly:     338.2085 deg
Mean motion:   12.53573753 rev/day
Decay rate:       -2.7e-07 rev/day^2
Epoch rev:           52940
Checksum:              280

Satellite: AO-10
Catalog number: 14129
Epoch time:      08108.53908122
Element set:     496
Inclination:      025.9256 deg
RA of node:       219.8988 deg
Eccentricity:    0.6006147
Arg of perigee:   116.1824 deg
Mean anomaly:     316.1114 deg
Mean motion:   02.05868097 rev/day
Decay rate:       1.49e-06 rev/day^2
Epoch rev:           18685
Checksum:              319

Satellite: UO-11
Catalog number: 14781
Epoch time:      08108.52615265
Element set:     646
Inclination:      098.1607 deg
RA of node:       141.6374 deg
Eccentricity:    0.0007963
Arg of perigee:   268.2221 deg
Mean anomaly:     091.8102 deg
Mean motion:   14.79634377 rev/day
Decay rate:       1.76e-06 rev/day^2
Epoch rev:           29488
Checksum:              320

Satellite: RS-15
Catalog number: 23439
Epoch time:      08107.81645627
Element set:    0161
Inclination:      064.8161 deg
RA of node:       234.2858 deg
Eccentricity:    0.0149447
Arg of perigee:   134.5393 deg
Mean anomaly:     226.7849 deg
Mean motion:   11.27552043 rev/day
Decay rate:       -3.9e-07 rev/day^2
Epoch rev:           54804
Checksum:              318

Satellite: FO-29
Catalog number: 24278
Epoch time:      08108.85073034
Element set:     752
Inclination:      098.5872 deg
RA of node:       033.0274 deg
Eccentricity:    0.0351264
Arg of perigee:   011.8505 deg
Mean anomaly:     349.0637 deg
Mean motion:   13.52936996 rev/day
Decay rate:       -1.8e-07 rev/day^2
Epoch rev:           57623
Checksum:              323

Satellite: SO-33
Catalog number: 25509
Epoch time:      08108.79732176
Element set:     177
Inclination:      031.4327 deg
RA of node:       297.8154 deg
Eccentricity:    0.0354953
Arg of perigee:   219.2258 deg
Mean anomaly:     138.2197 deg
Mean motion:   14.28212191 rev/day
Decay rate:        7.0e-08 rev/day^2
Epoch rev:           49497
Checksum:              329

Satellite: AO-40
Catalog number: 26609
Epoch time:      08108.30068952
Element set:      43
Inclination:      007.5547 deg
RA of node:       087.4810 deg
Eccentricity:    0.7915516
Arg of perigee:   072.2316 deg
Mean anomaly:     353.6918 deg
Mean motion:   01.25583289 rev/day
Decay rate:      -1.74e-06 rev/day^2
Epoch rev:            3427
Checksum:              312

Satellite: VO-52
Catalog number: 28650
Epoch time:      08107.74025901
Element set:     906
Inclination:      097.7935 deg
RA of node:       176.0253 deg
Eccentricity:    0.0026782
Arg of perigee:   343.7918 deg
Mean anomaly:     016.2448 deg
Mean motion:   14.81447655 rev/day
Decay rate:       -9.5e-07 rev/day^2
Epoch rev:           15950
Checksum:              327

Satellite: PO-63
Catalog number: 29712
Epoch time:      08108.72031394
Element set:     366
Inclination:      097.8798 deg
RA of node:       168.0318 deg
Eccentricity:    0.0013361
Arg of perigee:   214.1965 deg
Mean anomaly:     145.8384 deg
Mean motion:   14.80106608 rev/day
Decay rate:       5.46e-06 rev/day^2
Epoch rev:            6852
Checksum:              321

/EX
SB KEPS @ AMSAT  $ORB08108.D
Orbital Elements  08108.MICROS

HR AMSAT ORBITAL ELEMENTS FOR THE MICROSATS
FROM WA5QGD FORT WORTH,TX April 17, 2008
Send Subscribe/unsubscribe to KEPS at 
http://www.amsat.org/mailman/listinfo/keps
BID: ORB08108.D
TO ALL RADIO AMATEURS BT

Satellite: AO-16
Catalog number: 20439
Epoch time:      08108.55229171
Element set:     299
Inclination:      098.2264 deg
RA of node:       091.7279 deg
Eccentricity:    0.0011418
Arg of perigee:   002.3953 deg
Mean anomaly:     357.7294 deg
Mean motion:   14.31790685 rev/day
Decay rate:        4.0e-07 rev/day^2
Epoch rev:           95224
Checksum:              315

Satellite: LO-19
Catalog number: 20442
Epoch time:      08108.53979087
Element set:     225
Inclination:      098.1987 deg
RA of node:       100.4323 deg
Eccentricity:    0.0011837
Arg of perigee:   000.4268 deg
Mean anomaly:     359.6918 deg
Mean motion:   14.32028948 rev/day
Decay rate:       -4.0e-07 rev/day^2
Epoch rev:           95239
Checksum:              317

Satellite: AO-27
Catalog number: 22825
Epoch time:      08108.57425779
Element set:     947
Inclination:      098.3787 deg
RA of node:       070.8860 deg
Eccentricity:    0.0009402
Arg of perigee:   081.0318 deg
Mean anomaly:     279.1910 deg
Mean motion:   14.29236539 rev/day
Decay rate:        5.4e-07 rev/day^2
Epoch rev:           75911
Checksum:              334

Satellite: IO-26
Catalog number: 22826
Epoch time:      08107.79888711
Element set:    0651
Inclination:      098.3710 deg
RA of node:       071.0785 deg
Eccentricity:    0.0009928
Arg of perigee:   078.5745 deg
Mean anomaly:     281.6555 deg
Mean motion:   14.29484427 rev/day
Decay rate:        1.4e-07 rev/day^2
Epoch rev:           75909
Checksum:              348

Satellite: PO-28
Catalog number: 22829
Epoch time:      08107.81547238
Element set:     922
Inclination:      098.3586 deg
RA of node:       072.2094 deg
Eccentricity:    0.0010749
Arg of perigee:   052.9059 deg
Mean anomaly:     307.3105 deg
Mean motion:   14.30186286 rev/day
Decay rate:        6.0e-08 rev/day^2
Epoch rev:           75935
Checksum:              319

Satellite: GO-32
Catalog number: 25397
Epoch time:      08107.73243941
Element set:     576
Inclination:      098.3703 deg
RA of node:       145.9129 deg
Eccentricity:    0.0002143
Arg of perigee:   078.4582 deg
Mean anomaly:     281.6856 deg
Mean motion:   14.23141085 rev/day
Decay rate:       -9.0e-07 rev/day^2
Epoch rev:           50747
Checksum:              312

Satellite: MO-46
Catalog number: 26548
Epoch time:      08107.81254484
Element set:      74
Inclination:      064.5585 deg
RA of node:       320.1871 deg
Eccentricity:    0.0023005
Arg of perigee:   333.0647 deg
Mean anomaly:     026.9233 deg
Mean motion:   14.83248835 rev/day
Decay rate:      -1.15e-06 rev/day^2
Epoch rev:           40871
Checksum:              298

Satellite: NO-44
Catalog number: 26931
Epoch time:      08107.43726943
Element set:     855
Inclination:      067.0509 deg
RA of node:       083.7300 deg
Eccentricity:    0.0005845
Arg of perigee:   277.9332 deg
Mean anomaly:     082.1107 deg
Mean motion:   14.29520086 rev/day
Decay rate:       2.20e-06 rev/day^2
Epoch rev:           34158
Checksum:              295

Satellite: SO-50
Catalog number: 27607
Epoch time:      08108.58274407
Element set:     580
Inclination:      064.5582 deg
RA of node:       237.6904 deg
Eccentricity:    0.0083396
Arg of perigee:   291.2200 deg
Mean anomaly:     067.9973 deg
Mean motion:   14.71345936 rev/day
Decay rate:       -6.0e-08 rev/day^2
Epoch rev:           28605
Checksum:              324

Satellite: CO-55
Catalog number: 27844
Epoch time:      08107.59608466
Element set:     283
Inclination:      098.7177 deg
RA of node:       116.7164 deg
Eccentricity:    0.0009189
Arg of perigee:   297.6046 deg
Mean anomaly:     062.4197 deg
Mean motion:   14.20572339 rev/day
Decay rate:        5.0e-07 rev/day^2
Epoch rev:           24869
Checksum:              344

Satellite: CO-57
Catalog number: 27848
Epoch time:      08108.57210248
Element set:     235
Inclination:      098.7177 deg
RA of node:       116.7865 deg
Eccentricity:    0.0009250
Arg of perigee:   298.6512 deg
Mean anomaly:     061.3742 deg
Mean motion:   14.20382780 rev/day
Decay rate:        3.0e-07 rev/day^2
Epoch rev:           24880
Checksum:              313

Satellite: AO-51
Catalog number: 28375
Epoch time:      08107.58030494
Element set:    0079
Inclination:      098.0774 deg
RA of node:       135.6013 deg
Eccentricity:    0.0084628
Arg of perigee:   340.4428 deg
Mean anomaly:     019.3521 deg
Mean motion:   14.40603783 rev/day
Decay rate:        1.9e-07 rev/day^2
Epoch rev:           19953
Checksum:              308

Satellite: CO-56
Catalog number: 28941
Epoch time:      08107.95634881
Element set:    0994
Inclination:      098.1018 deg
RA of node:       210.4600 deg
Eccentricity:    0.0176270
Arg of perigee:   262.8454 deg
Mean anomaly:     095.2732 deg
Mean motion:   15.53529645 rev/day
Decay rate:     1.5117e-04 rev/day^2
Epoch rev:           12052
Checksum:              317

Satellite: CP4
Catalog number: 31122
Epoch time:      08107.75639558
Element set:    0317
Inclination:      098.0470 deg
RA of node:       175.6164 deg
Eccentricity:    0.0086230
Arg of perigee:   159.0145 deg
Mean anomaly:     201.4610 deg
Mean motion:   14.55112461 rev/day
Decay rate:       5.52e-06 rev/day^2
Epoch rev:           05314
Checksum:              268

Satellite: CP3
Catalog number: 31128
Epoch time:      08107.86404929
Element set:    0309
Inclination:      098.0419 deg
RA of node:       173.8824 deg
Eccentricity:    0.0103704
Arg of perigee:   163.9160 deg
Mean anomaly:     196.5359 deg
Mean motion:   14.51934466 rev/day
Decay rate:       -4.7e-07 rev/day^2
Epoch rev:           05303
Checksum:              307

